Location: Elliott Corner
(37.4627°N, 119.7746°W)
Time: 22:27:31
(UTC+00:00)

COSMO-SKYMED 1 - Pass Details

Date: 10 September 2024
Orbit: 621 x 623 km, 97.9° (Epoch: 13 October)

Event Time Altitude Azimuth Distance (km) Brightness Sun altitude
Rises 12:54:44 0° 155° (SSE) 2,892 6.2 -9.2°
Reaches altitude 10° 12:56:56 10° 150° (SSE) 1,989 5.4 -8.8°
Maximum altitude 13:01:09 53° 74° (ENE) 768 3.5 -7.9°
Drops below altitude 10° 13:05:24 10° 358° (N) 2,002 5.3 -7.1°
Sets 13:07:38 0° 354° (N) 2,913 6.1 -6.7°
